| time (UTC) | temp F | wind direction | speed knots | gust knots | rain 1hr in | rain 24hr in | rain mn in | humidity % | barometer mb |
| 20260507021103 | 41 | 232 | 0.0 | 0.9 | 0.00 | 0.00 | 0.00 | 54 | 1014.7 |
| 20260507020602 | 41 | 232 | 0.0 | 0.9 | 0.00 | 0.00 | 0.00 | 53 | 1014.6 |
| 20260507020057 | 42 | 247 | 0.0 | 0.0 | 0.00 | 0.00 | 0.00 | 52 | 1014.6 |
| 20260507015556 | 42 | 247 | 0.0 | 0.9 | 0.00 | 0.00 | 0.00 | 52 | 1014.7 |
| 20260507015053 | 42 | 247 | 0.0 | 0.9 | 0.00 | 0.00 | 0.00 | 51 | 1014.6 |
| 20260507014550 | 43 | 247 | 0.9 | 0.9 | 0.00 | 0.00 | 0.00 | 50 | 1014.6 |
| 20260507014045 | 43 | 244 | 0.9 | 0.9 | 0.00 | 0.00 | 0.00 | 49 | 1014.5 |
| 20260507013542 | 43 | 242 | 0.0 | 0.9 | 0.00 | 0.00 | 0.00 | 49 | 1014.5 |
| 20260507013039 | 44 | 247 | 0.9 | 1.7 | 0.00 | 0.00 | 0.00 | 48 | 1014.6 |
| 20260507012536 | 44 | 234 | 0.9 | 2.6 | 0.00 | 0.00 | 0.00 | 48 | 1014.7 |
| 20260507012027 | 44 | 246 | 0.9 | 1.7 | 0.00 | 0.00 | 0.00 | 47 | 1014.6 |
| 20260507011524 | 44 | 245 | 0.0 | 0.9 | 0.00 | 0.00 | 0.00 | 48 | 1014.6 |
| 20260507011020 | 45 | 249 | 0.9 | 1.7 | 0.00 | 0.00 | 0.00 | 48 | 1014.6 |
| 20260507010515 | 45 | 241 | 0.9 | 1.7 | 0.00 | 0.00 | 0.00 | 48 | 1014.7 |
| 20260507010012 | 45 | 241 | 0.9 | 0.9 | 0.00 | 0.00 | 0.00 | 48 | 1014.8 |
| 20260507005509 | 45 | 271 | 0.9 | 2.6 | 0.00 | 0.00 | 0.00 | 48 | 1014.6 |
| 20260507005005 | 45 | 212 | 1.7 | 2.6 | 0.00 | 0.00 | 0.00 | 47 | 1014.8 |
| 20260507004502 | 45 | 304 | 2.6 | 4.3 | 0.00 | 0.00 | 0.00 | 47 | 1014.6 |
| 20260507004000 | 45 | 255 | 0.9 | 0.9 | 0.00 | 0.00 | 0.00 | 48 | 1014.7 |
| 20260507003455 | 45 | 266 | 0.0 | 2.6 | 0.00 | 0.00 | 0.00 | 47 | 1014.8 |
| 20260507002950 | 45 | 253 | 0.9 | 2.6 | 0.00 | 0.00 | 0.00 | 47 | 1014.6 |
| 20260507002447 | 45 | 319 | 1.7 | 4.3 | 0.00 | 0.00 | 0.00 | 47 | 1014.8 |
| 20260507001944 | 45 | 306 | 1.7 | 5.2 | 0.00 | 0.00 | 0.00 | 48 | 1014.8 |
| 20260507001440 | 45 | 270 | 2.6 | 7.0 | 0.00 | 0.00 | 0.00 | 47 | 1014.7 |
| 20260507000938 | 45 | 300 | 1.7 | 2.6 | 0.00 | 0.00 | 0.00 | 47 | 1014.7 |
| 20260507000435 | 45 | 305 | 2.6 | 5.2 | 0.00 | 0.00 | 0.00 | 46 | 1015.0 |
| 20260506235929 | 45 | 230 | 1.7 | 2.6 | 0.00 | 0.00 | 0.00 | 47 | 1014.9 |
| 20260506235427 | 45 | 288 | 0.9 | 6.1 | 0.00 | 0.00 | 0.00 | 48 | 1014.8 |
| 20260506234921 | 45 | 336 | 0.9 | 5.2 | 0.00 | 0.00 | 0.00 | 48 | 1014.8 |
| 20260506234419 | 45 | 257 | 2.6 | 4.3 | 0.00 | 0.00 | 0.00 | 47 | 1014.9 |
| 20260506233912 | 45 | 304 | 1.7 | 4.3 | 0.00 | 0.00 | 0.00 | 47 | 1014.9 |
| 20260506233407 | 45 | 273 | 1.7 | 4.3 | 0.00 | 0.00 | 0.00 | 47 | 1014.8 |
| 20260506232905 | 45 | 325 | 2.6 | 4.3 | 0.00 | 0.00 | 0.00 | 48 | 1015.1 |
| 20260506232401 | 45 | 310 | 0.9 | 1.7 | 0.00 | 0.00 | 0.00 | 48 | 1015.1 |
| 20260506231856 | 45 | 249 | 0.9 | 2.6 | 0.00 | 0.00 | 0.00 | 48 | 1015.0 |
| 20260506231354 | 45 | 254 | 0.9 | 1.7 | 0.00 | 0.00 | 0.00 | 48 | 1015.0 |
| 20260506230852 | 45 | 260 | 2.6 | 2.6 | 0.00 | 0.00 | 0.00 | 48 | 1015.3 |
| 20260506230348 | 44 | 269 | 0.9 | 2.6 | 0.00 | 0.00 | 0.00 | 48 | 1015.0 |
| 20260506225844 | 44 | 280 | 1.7 | 4.3 | 0.00 | 0.00 | 0.00 | 47 | 1015.1 |
| 20260506225342 | 44 | 289 | 1.7 | 6.1 | 0.00 | 0.00 | 0.00 | 48 | 1015.1 |
| 20260506224839 | 45 | 300 | 1.7 | 2.6 | 0.00 | 0.00 | 0.00 | 48 | 1015.1 |
| 20260506224336 | 45 | 287 | 2.6 | 4.3 | 0.00 | 0.00 | 0.00 | 48 | 1015.1 |
| 20260506223832 | 45 | 313 | 0.9 | 6.1 | 0.00 | 0.00 | 0.00 | 48 | 1015.1 |
| 20260506223327 | 45 | 281 | 1.7 | 2.6 | 0.00 | 0.00 | 0.00 | 47 | 1015.2 |
| 20260506222825 | 44 | 233 | 0.9 | 2.6 | 0.00 | 0.00 | 0.00 | 48 | 1015.2 |
| 20260506222320 | 44 | 270 | 2.6 | 2.6 | 0.00 | 0.00 | 0.00 | 48 | 1015.3 |
| 20260506221818 | 44 | 331 | 2.6 | 5.2 | 0.00 | 0.00 | 0.00 | 49 | 1015.2 |
| 20260506221316 | 44 | 249 | 1.7 | 2.6 | 0.00 | 0.00 | 0.00 | 48 | 1015.1 |
| 20260506220813 | 44 | 237 | 0.9 | 4.3 | 0.00 | 0.00 | 0.00 | 49 | 1015.1 |
| 20260506220308 | 45 | 305 | 1.7 | 2.6 | 0.00 | 0.00 | 0.00 | 49 | 1015.4 |
| 20260506215805 | 44 | 247 | 0.9 | 1.7 | 0.00 | 0.00 | 0.00 | 50 | 1015.2 |
| 20260506215301 | 44 | 199 | 1.7 | 5.2 | 0.00 | 0.00 | 0.00 | 49 | 1015.6 |
| 20260506214756 | 44 | 317 | 1.7 | 6.1 | 0.00 | 0.00 | 0.00 | 49 | 1015.3 |
| 20260506214254 | 44 | 260 | 1.7 | 2.6 | 0.00 | 0.00 | 0.00 | 49 | 1015.3 |
| 20260506213752 | 44 | 260 | 2.6 | 4.3 | 0.00 | 0.00 | 0.00 | 49 | 1015.4 |
| 20260506213249 | 44 | 268 | 0.9 | 2.6 | 0.00 | 0.00 | 0.00 | 49 | 1015.4 |
| 20260506212746 | 44 | 303 | 2.6 | 5.2 | 0.00 | 0.00 | 0.00 | 49 | 1015.6 |
| 20260506212242 | 44 | 325 | 2.6 | 8.7 | 0.00 | 0.00 | 0.00 | 49 | 1015.5 |
| 20260506211737 | 44 | 279 | 2.6 | 2.6 | 0.00 | 0.00 | 0.00 | 49 | 1015.5 |
| 20260506211234 | 44 | 287 | 3.5 | 4.3 | 0.00 | 0.00 | 0.00 | 48 | 1015.5 |
| 20260506210731 | 44 | 264 | 2.6 | 5.2 | 0.00 | 0.00 | 0.00 | 49 | 1015.6 |
| 20260506210228 | 44 | 227 | 2.6 | 5.2 | 0.00 | 0.00 | 0.00 | 49 | 1015.7 |
| 20260506205725 | 44 | 290 | 1.7 | 2.6 | 0.00 | 0.00 | 0.00 | 49 | 1015.7 |
| 20260506205220 | 44 | 274 | 2.6 | 5.2 | 0.00 | 0.00 | 0.00 | 49 | 1015.6 |
| 20260506204717 | 44 | 297 | 3.5 | 7.0 | 0.00 | 0.00 | 0.00 | 49 | 1015.5 |
| 20260506204214 | 44 | 302 | 1.7 | 4.3 | 0.00 | 0.00 | 0.00 | 49 | 1015.6 |
| 20260506203712 | 44 | 279 | 1.7 | 2.6 | 0.00 | 0.00 | 0.00 | 49 | 1015.5 |
| 20260506203209 | 44 | 292 | 1.7 | 2.6 | 0.00 | 0.00 | 0.00 | 48 | 1015.5 |
| 20260506202702 | 44 | 237 | 2.6 | 6.1 | 0.00 | 0.00 | 0.00 | 49 | 1015.6 |
| 20260506202157 | 43 | 282 | 3.5 | 4.3 | 0.00 | 0.00 | 0.00 | 49 | 1015.7 |
| 20260506201655 | 44 | 222 | 2.6 | 4.3 | 0.00 | 0.00 | 0.00 | 48 | 1015.6 |
| 20260506201151 | 44 | 277 | 2.6 | 5.2 | 0.00 | 0.00 | 0.00 | 48 | 1015.7 |
| 20260506200648 | 44 | 222 | 1.7 | 1.7 | 0.00 | 0.00 | 0.00 | 48 | 1015.7 |
| 20260506200144 | 43 | 274 | 2.6 | 6.1 | 0.00 | 0.00 | 0.00 | 49 | 1015.6 |
| 20260506195641 | 43 | 260 | 1.7 | 7.8 | 0.00 | 0.00 | 0.00 | 49 | 1015.6 |
| 20260506195137 | 44 | 281 | 3.5 | 7.0 | 0.00 | 0.00 | 0.00 | 48 | 1015.6 |
| 20260506194635 | 43 | 285 | 0.9 | 2.6 | 0.00 | 0.00 | 0.00 | 49 | 1015.8 |
| 20260506194131 | 43 | 265 | 1.7 | 4.3 | 0.00 | 0.00 | 0.00 | 49 | 1015.7 |
| 20260506193629 | 43 | 289 | 2.6 | 5.2 | 0.00 | 0.00 | 0.00 | 49 | 1015.8 |
| 20260506193126 | 43 | 255 | 2.6 | 6.1 | 0.00 | 0.00 | 0.00 | 48 | 1015.7 |
| 20260506192623 | 43 | 272 | 0.9 | 5.2 | 0.00 | 0.00 | 0.00 | 49 | 1015.7 |
| 20260506192118 | 43 | 227 | 2.6 | 4.3 | 0.00 | 0.00 | 0.00 | 48 | 1015.8 |
| 20260506191616 | 43 | 245 | 1.7 | 4.3 | 0.00 | 0.00 | 0.00 | 48 | 1015.9 |
| 20260506191111 | 43 | 274 | 1.7 | 6.1 | 0.00 | 0.00 | 0.00 | 48 | 1015.9 |
| 20260506190609 | 43 | 226 | 4.3 | 5.2 | 0.00 | 0.00 | 0.00 | 48 | 1015.7 |
| 20260506190106 | 43 | 261 | 2.6 | 6.1 | 0.00 | 0.00 | 0.00 | 49 | 1015.7 |
| 20260506185603 | 43 | 246 | 0.9 | 6.1 | 0.00 | 0.00 | 0.00 | 47 | 1015.7 |
| 20260506185059 | 43 | 212 | 0.9 | 5.2 | 0.00 | 0.00 | 0.00 | 48 | 1015.8 |
| 20260506184557 | 43 | 274 | 2.6 | 5.2 | 0.00 | 0.00 | 0.00 | 49 | 1016.0 |
| 20260506184054 | 43 | 302 | 1.7 | 5.2 | 0.00 | 0.00 | 0.00 | 49 | 1015.7 |
| 20260506183550 | 43 | 241 | 5.2 | 6.1 | 0.00 | 0.00 | 0.00 | 49 | 1015.6 |
| 20260506183046 | 43 | 221 | 2.6 | 7.0 | 0.00 | 0.00 | 0.00 | 49 | 1015.7 |
| 20260506182544 | 43 | 246 | 5.2 | 7.0 | 0.00 | 0.00 | 0.00 | 48 | 1015.9 |
| 20260506182041 | 43 | 295 | 2.6 | 4.3 | 0.00 | 0.00 | 0.00 | 48 | 1015.9 |
| 20260506181539 | 43 | 261 | 2.6 | 6.1 | 0.00 | 0.00 | 0.00 | 48 | 1016.0 |
| 20260506181035 | 42 | 221 | 1.7 | 7.0 | 0.00 | 0.00 | 0.00 | 49 | 1015.8 |
| 20260506180532 | 43 | 275 | 3.5 | 7.0 | 0.00 | 0.00 | 0.00 | 49 | 1015.9 |
| 20260506180029 | 42 | 240 | 1.7 | 4.3 | 0.00 | 0.00 | 0.00 | 49 | 1016.1 |
| 20260506175525 | 42 | 235 | 2.6 | 6.1 | 0.00 | 0.00 | 0.00 | 49 | 1015.9 |
| 20260506175022 | 42 | 283 | 3.5 | 7.0 | 0.00 | 0.00 | 0.00 | 50 | 1016.1 |
| 20260506174520 | 42 | 271 | 1.7 | 6.1 | 0.00 | 0.00 | 0.00 | 50 | 1016.1 |
| 20260506174016 | 42 | 313 | 2.6 | 4.3 | 0.00 | 0.00 | 0.00 | 49 | 1016.0 |
| 20260506173514 | 42 | 258 | 3.5 | 4.3 | 0.00 | 0.00 | 0.00 | 50 | 1016.2 |
| 20260506173011 | 42 | 297 | 1.7 | 6.1 | 0.00 | 0.00 | 0.00 | 49 | 1016.2 |
| 20260506172508 | 42 | 257 | 2.6 | 6.1 | 0.00 | 0.00 | 0.00 | 49 | 1016.1 |
| 20260506172004 | 42 | 261 | 1.7 | 5.2 | 0.00 | 0.00 | 0.00 | 50 | 1016.2 |
| 20260506171501 | 42 | 268 | 3.5 | 7.0 | 0.00 | 0.00 | 0.00 | 49 | 1016.0 |
| 20260506170958 | 42 | 254 | 0.9 | 5.2 | 0.00 | 0.00 | 0.00 | 50 | 1016.1 |
| 20260506170455 | 41 | 303 | 1.7 | 7.0 | 0.00 | 0.00 | 0.00 | 49 | 1016.2 |
| 20260506165948 | 42 | 273 | 2.6 | 4.3 | 0.00 | 0.00 | 0.00 | 49 | 1016.4 |
| 20260506165446 | 41 | 281 | 2.6 | 7.0 | 0.00 | 0.00 | 0.00 | 49 | 1016.2 |
| 20260506164936 | 41 | 229 | 3.5 | 8.7 | 0.00 | 0.00 | 0.00 | 49 | 1016.4 |
| 20260506164433 | 41 | 263 | 2.6 | 6.1 | 0.00 | 0.00 | 0.00 | 50 | 1016.2 |
| 20260506163931 | 41 | 291 | 1.7 | 8.7 | 0.00 | 0.00 | 0.00 | 50 | 1016.4 |
| 20260506163426 | 41 | 275 | 1.7 | 7.8 | 0.00 | 0.00 | 0.00 | 50 | 1016.1 |
| 20260506162921 | 41 | 258 | 3.5 | 5.2 | 0.00 | 0.00 | 0.00 | 50 | 1016.1 |
| 20260506162418 | 41 | 215 | 2.6 | 7.0 | 0.00 | 0.00 | 0.00 | 50 | 1016.2 |
| 20260506161910 | 41 | 183 | 3.5 | 6.1 | 0.00 | 0.00 | 0.00 | 50 | 1016.1 |
| 20260506161408 | 41 | 336 | 6.1 | 7.8 | 0.00 | 0.00 | 0.00 | 50 | 1015.9 |
| 20260506160904 | 41 | 314 | 4.3 | 5.2 | 0.00 | 0.00 | 0.00 | 49 | 1016.1 |
| 20260506160401 | 41 | 301 | 4.3 | 5.2 | 0.00 | 0.00 | 0.00 | 50 | 1016.1 |
| 20260506155900 | 42 | 269 | 2.6 | 4.3 | 0.00 | 0.00 | 0.00 | 49 | 1016.1 |
| 20260506155357 | 42 | 282 | 4.3 | 6.1 | 0.00 | 0.00 | 0.00 | 49 | 1016.1 |
| 20260506153519 | 41 | 263 | 1.7 | 7.8 | 0.00 | 0.00 | 0.00 | 49 | 1015.9 |
| 20260506153017 | 41 | 216 | 4.3 | 7.0 | 0.00 | 0.00 | 0.00 | 49 | 1015.9 |
| 20260506152514 | 41 | 267 | 4.3 | 6.1 | 0.00 | 0.00 | 0.00 | 49 | 1016.0 |
| 20260506152012 | 42 | 261 | 2.6 | 4.3 | 0.00 | 0.00 | 0.00 | 49 | 1015.9 |
| 20260506151509 | 41 | 274 | 4.3 | 11.3 | 0.00 | 0.00 | 0.00 | 50 | 1015.9 |
| 20260506151006 | 42 | 290 | 2.6 | 5.2 | 0.00 | 0.00 | 0.00 | 50 | 1016.0 |
| 20260506150502 | 41 | 254 | 0.9 | 7.8 | 0.00 | 0.00 | 0.00 | 49 | 1016.1 |
| 20260506145959 | 41 | 218 | 2.6 | 5.2 | 0.00 | 0.00 | 0.00 | 51 | 1015.9 |
| 20260506145456 | 41 | 292 | 0.9 | 5.2 | 0.00 | 0.00 | 0.00 | 50 | 1015.7 |
| 20260506144954 | 42 | 289 | 3.5 | 6.1 | 0.00 | 0.00 | 0.00 | 50 | 1016.0 |
| 20260506144450 | 42 | 247 | 4.3 | 6.1 | 0.00 | 0.00 | 0.00 | 51 | 1016.1 |
| 20260506143948 | 42 | 265 | 0.9 | 5.2 | 0.00 | 0.00 | 0.00 | 52 | 1016.1 |
| 20260506143445 | 42 | 248 | 3.5 | 5.2 | 0.00 | 0.00 | 0.00 | 52 | 1016.1 |
| 20260506142944 | 42 | 216 | 4.3 | 6.1 | 0.00 | 0.00 | 0.00 | 51 | 1015.9 |
| 20260506142441 | 41 | 278 | 1.7 | 6.1 | 0.00 | 0.00 | 0.00 | 53 | 1015.8 |
| 20260506141939 | 42 | 253 | 1.7 | 5.2 | 0.00 | 0.00 | 0.00 | 52 | 1015.9 |
| 20260506141436 | 42 | 300 | 2.6 | 2.6 | 0.00 | 0.00 | 0.00 | 53 | 1015.9 |
| 20260506140935 | 41 | 266 | 2.6 | 7.0 | 0.00 | 0.00 | 0.00 | 53 | 1015.9 |
| 20260506140431 | 41 | 210 | 1.7 | 5.2 | 0.00 | 0.00 | 0.00 | 53 | 1015.8 |
| 20260506135928 | 41 | 260 | 1.7 | 2.6 | 0.00 | 0.00 | 0.00 | 53 | 1015.8 |
| 20260506135425 | 41 | 309 | 3.5 | 4.3 | 0.00 | 0.00 | 0.00 | 53 | 1015.7 |
| 20260506134922 | 41 | 278 | 4.3 | 7.0 | 0.00 | 0.00 | 0.00 | 53 | 1015.7 |
| 20260506134418 | 41 | 235 | 1.7 | 2.6 | 0.00 | 0.00 | 0.00 | 56 | 1015.7 |
| 20260506133915 | 40 | 282 | 2.6 | 4.3 | 0.00 | 0.00 | 0.00 | 56 | 1015.9 |
| 20260506133411 | 40 | 263 | 3.5 | 6.1 | 0.00 | 0.00 | 0.00 | 56 | 1015.8 |
| 20260506132908 | 40 | 250 | 1.7 | 5.2 | 0.00 | 0.00 | 0.00 | 57 | 1015.6 |
| 20260506132405 | 40 | 254 | 2.6 | 7.0 | 0.00 | 0.00 | 0.00 | 56 | 1015.5 |
| 20260506131904 | 40 | 260 | 3.5 | 4.3 | 0.00 | 0.00 | 0.00 | 57 | 1015.7 |
| 20260506131359 | 39 | 292 | 0.9 | 4.3 | 0.00 | 0.00 | 0.00 | 57 | 1015.6 |
| 20260506130856 | 39 | 248 | 0.9 | 2.6 | 0.00 | 0.00 | 0.00 | 58 | 1015.4 |
| 20260506130353 | 39 | 282 | 4.3 | 6.1 | 0.00 | 0.00 | 0.00 | 59 | 1015.5 |
| 20260506125851 | 39 | 306 | 1.7 | 4.3 | 0.00 | 0.00 | 0.00 | 60 | 1015.2 |
| 20260506125349 | 38 | 329 | 0.0 | 1.7 | 0.00 | 0.00 | 0.00 | 61 | 1015.3 |
| 20260506124847 | 38 | 228 | 0.9 | 2.6 | 0.00 | 0.00 | 0.00 | 61 | 1015.1 |
| 20260506124343 | 38 | 324 | 1.7 | 4.3 | 0.00 | 0.00 | 0.00 | 61 | 1015.2 |
| 20260506123841 | 38 | 299 | 1.7 | 1.7 | 0.00 | 0.00 | 0.00 | 63 | 1015.1 |
| 20260506123340 | 37 | 270 | 0.9 | 2.6 | 0.00 | 0.00 | 0.00 | 64 | 1014.9 |
| 20260506122836 | 37 | 275 | 0.9 | 1.7 | 0.00 | 0.00 | 0.00 | 64 | 1015.1 |
| 20260506122333 | 37 | 254 | 1.7 | 2.6 | 0.00 | 0.00 | 0.00 | 66 | 1015.1 |
| 20260506121832 | 35 | 336 | 2.6 | 2.6 | 0.00 | 0.00 | 0.00 | 69 | 1015.0 |
| 20260506121328 | 34 | 276 | 0.0 | 0.9 | 0.00 | 0.00 | 0.00 | 72 | 1014.9 |
| 20260506120825 | 33 | 258 | 0.0 | 0.9 | 0.00 | 0.00 | 0.00 | 74 | 1014.8 |
| 20260506120323 | 32 | 230 | 0.0 | 0.9 | 0.00 | 0.00 | 0.00 | 75 | 1014.8 |
| 20260506115820 | 32 | 230 | 0.0 | 0.0 | 0.00 | 0.00 | 0.00 | 76 | 1014.9 |
| 20260506115318 | 31 | 230 | 0.0 | 0.9 | 0.00 | 0.00 | 0.00 | 77 | 1014.8 |
| 20260506114816 | 30 | 230 | 0.0 | 0.0 | 0.00 | 0.00 | 0.00 | 78 | 1014.5 |
| 20260506114314 | 30 | 230 | 0.0 | 0.9 | 0.00 | 0.00 | 0.00 | 78 | 1014.7 |
| 20260506113812 | 30 | 230 | 0.0 | 0.9 | 0.00 | 0.00 | 0.00 | 78 | 1014.4 |
| 20260506113309 | 30 | 230 | 0.0 | 0.0 | 0.00 | 0.00 | 0.00 | 78 | 1014.5 |
| 20260506112806 | 30 | 230 | 0.0 | 0.0 | 0.00 | 0.00 | 0.00 | 78 | 1014.5 |
| 20260506112305 | 30 | 230 | 0.0 | 0.9 | 0.00 | 0.00 | 0.00 | 78 | 1014.5 |
| 20260506111800 | 30 | 231 | 0.0 | 0.9 | 0.00 | 0.00 | 0.00 | 78 | 1014.5 |
| 20260506111258 | 30 | 231 | 0.0 | 0.0 | 0.00 | 0.00 | 0.00 | 78 | 1014.5 |
| 20260506110755 | 30 | 231 | 0.0 | 0.9 | 0.00 | 0.00 | 0.00 | 79 | 1014.4 |
| 20260506110253 | 30 | 231 | 0.0 | 0.0 | 0.00 | 0.00 | 0.00 | 79 | 1014.4 |
| 20260506105749 | 30 | 231 | 0.0 | 0.9 | 0.00 | 0.00 | 0.00 | 79 | 1014.4 |
| 20260506105246 | 30 | 231 | 0.0 | 0.9 | 0.00 | 0.00 | 0.00 | 79 | 1014.4 |
| 20260506104744 | 30 | 231 | 0.0 | 0.0 | 0.00 | 0.00 | 0.00 | 80 | 1014.5 |
| 20260506104241 | 30 | 231 | 0.0 | 0.9 | 0.00 | 0.00 | 0.00 | 80 | 1014.3 |
| 20260506103738 | 30 | 231 | 0.0 | 0.9 | 0.00 | 0.00 | 0.00 | 81 | 1014.2 |
| 20260506103235 | 30 | 232 | 0.0 | 0.9 | 0.00 | 0.00 | 0.00 | 81 | 1014.3 |
| 20260506102733 | 30 | 249 | 0.9 | 0.9 | 0.00 | 0.00 | 0.00 | 81 | 1014.0 |
| 20260506102231 | 30 | 255 | 0.0 | 0.0 | 0.00 | 0.00 | 0.00 | 80 | 1014.1 |
| 20260506101728 | 30 | 255 | 0.9 | 0.9 | 0.00 | 0.00 | 0.00 | 80 | 1014.1 |
| 20260506101224 | 31 | 255 | 0.0 | 0.9 | 0.00 | 0.00 | 0.00 | 80 | 1014.0 |
| 20260506100722 | 31 | 255 | 0.0 | 0.9 | 0.00 | 0.00 | 0.00 | 79 | 1013.9 |
| 20260506100220 | 31 | 256 | 0.0 | 0.9 | 0.00 | 0.00 | 0.00 | 78 | 1014.0 |
| 20260506095718 | 31 | 256 | 0.9 | 0.9 | 0.00 | 0.00 | 0.00 | 78 | 1014.2 |
| 20260506095215 | 31 | 256 | 0.9 | 0.9 | 0.00 | 0.00 | 0.00 | 77 | 1013.9 |
| 20260506094712 | 32 | 256 | 0.9 | 0.9 | 0.00 | 0.00 | 0.00 | 77 | 1014.1 |
| 20260506094210 | 32 | 257 | 0.0 | 0.9 | 0.00 | 0.00 | 0.00 | 76 | 1014.1 |
| 20260506093709 | 32 | 257 | 0.0 | 0.0 | 0.00 | 0.00 | 0.00 | 76 | 1014.1 |
| 20260506093205 | 32 | 257 | 0.0 | 0.9 | 0.00 | 0.00 | 0.00 | 75 | 1014.0 |
| 20260506092703 | 32 | 257 | 0.0 | 0.9 | 0.00 | 0.00 | 0.00 | 75 | 1014.1 |
| 20260506092200 | 32 | 257 | 0.0 | 0.9 | 0.00 | 0.00 | 0.00 | 75 | 1014.0 |
| 20260506091658 | 32 | 257 | 0.0 | 0.9 | 0.00 | 0.00 | 0.00 | 74 | 1014.0 |
| 20260506091155 | 33 | 257 | 0.0 | 0.0 | 0.00 | 0.00 | 0.00 | 74 | 1014.0 |
| 20260506090653 | 33 | 257 | 0.0 | 0.9 | 0.00 | 0.00 | 0.00 | 74 | 1014.1 |
| 20260506090149 | 33 | 257 | 0.0 | 0.0 | 0.00 | 0.00 | 0.00 | 73 | 1013.8 |
| 20260506085646 | 33 | 257 | 0.0 | 0.9 | 0.00 | 0.00 | 0.00 | 73 | 1014.1 |
| 20260506085142 | 33 | 257 | 0.0 | 0.9 | 0.00 | 0.00 | 0.00 | 72 | 1014.0 |
| 20260506084639 | 33 | 258 | 0.0 | 0.0 | 0.00 | 0.00 | 0.00 | 72 | 1013.7 |
| 20260506084136 | 33 | 258 | 0.0 | 0.0 | 0.00 | 0.00 | 0.00 | 71 | 1013.5 |
| 20260506083633 | 34 | 257 | 0.0 | 0.0 | 0.00 | 0.00 | 0.00 | 71 | 1013.7 |
| 20260506083130 | 34 | 257 | 0.0 | 0.0 | 0.00 | 0.00 | 0.00 | 71 | 1013.8 |
| 20260506082627 | 34 | 257 | 0.0 | 0.0 | 0.00 | 0.00 | 0.00 | 71 | 1014.0 |
| 20260506082122 | 34 | 257 | 0.0 | 0.9 | 0.00 | 0.00 | 0.00 | 70 | 1014.0 |
| 20260506081621 | 34 | 281 | 0.0 | 0.0 | 0.00 | 0.00 | 0.00 | 70 | 1014.0 |
| 20260506081118 | 35 | 281 | 0.0 | 0.9 | 0.00 | 0.00 | 0.00 | 70 | 1013.9 |
| 20260506080616 | 35 | 281 | 0.0 | 0.0 | 0.00 | 0.00 | 0.00 | 69 | 1013.8 |
| 20260506080112 | 35 | 281 | 0.0 | 0.0 | 0.00 | 0.00 | 0.00 | 68 | 1013.8 |
| 20260506073056 | 36 | 280 | 0.0 | 0.0 | 0.00 | 0.00 | 0.00 | 64 | 1013.5 |
| 20260506072553 | 37 | 281 | 0.0 | 0.0 | 0.00 | 0.00 | 0.00 | 63 | 1013.4 |
| 20260506072051 | 37 | 282 | 0.0 | 0.9 | 0.00 | 0.00 | 0.00 | 62 | 1013.5 |
| 20260506071548 | 37 | 288 | 0.0 | 0.9 | 0.00 | 0.00 | 0.00 | 62 | 1013.5 |
| 20260506071045 | 38 | 337 | 1.7 | 2.6 | 0.00 | 0.00 | 0.00 | 61 | 1013.4 |
| 20260506070543 | 38 | 294 | 1.7 | 1.7 | 0.00 | 0.00 | 0.00 | 60 | 1013.5 |
| 20260506062017 | 39 | 284 | 0.0 | 0.9 | 0.00 | 0.00 | 0.00 | 58 | 1013.2 |
| 20260506061512 | 39 | 302 | 1.7 | 1.7 | 0.00 | 0.00 | 0.00 | 58 | 1013.1 |
| 20260506061010 | 39 | 298 | 0.9 | 4.3 | 0.00 | 0.00 | 0.00 | 57 | 1013.3 |
| 20260506060509 | 39 | 274 | 0.0 | 2.6 | 0.00 | 0.00 | 0.00 | 57 | 1013.2 |
| 20260506050937 | 40 | 273 | 1.7 | 1.7 | 0.00 | 0.00 | 0.00 | 53 | 1012.8 |
| 20260506050435 | 41 | 247 | 0.9 | 1.7 | 0.00 | 0.00 | 0.00 | 53 | 1012.8 |
| 20260506044925 | 41 | 300 | 0.9 | 2.6 | 0.00 | 0.00 | 0.00 | 54 | 1012.5 |
| 20260506044424 | 41 | 265 | 0.0 | 1.7 | 0.00 | 0.00 | 0.00 | 54 | 1012.5 |
| 20260506043920 | 41 | 276 | 0.9 | 1.7 | 0.00 | 0.00 | 0.00 | 53 | 1012.5 |
| 20260506043417 | 42 | 285 | 0.9 | 1.7 | 0.00 | 0.00 | 0.00 | 53 | 1012.4 |
| 20260506042915 | 42 | 288 | 0.9 | 1.7 | 0.00 | 0.00 | 0.00 | 53 | 1012.4 |
| 20260506042415 | 42 | 339 | 3.5 | 5.2 | 0.00 | 0.00 | 0.00 | 52 | 1012.5 |
| 20260506041912 | 42 | 306 | 1.7 | 4.3 | 0.00 | 0.00 | 0.00 | 52 | 1012.3 |
| 20260506041410 | 42 | 321 | 4.3 | 6.1 | 0.00 | 0.00 | 0.00 | 52 | 1012.4 |
| 20260506040906 | 42 | 260 | 0.9 | 1.7 | 0.00 | 0.00 | 0.00 | 53 | 1012.4 |
| 20260506040404 | 42 | 318 | 3.5 | 5.2 | 0.00 | 0.00 | 0.00 | 51 | 1012.4 |
| 20260506035900 | 42 | 315 | 1.7 | 2.6 | 0.00 | 0.00 | 0.00 | 51 | 1012.2 |
| 20260506035357 | 43 | 46 | 1.7 | 6.1 | 0.00 | 0.00 | 0.00 | 51 | 1012.3 |
| 20260506034854 | 43 | 311 | 7.8 | 8.7 | 0.00 | 0.00 | 0.00 | 51 | 1012.3 |
| 20260506034351 | 43 | 307 | 4.3 | 8.7 | 0.00 | 0.00 | 0.00 | 50 | 1012.5 |
| 20260506033848 | 43 | 301 | 3.5 | 8.7 | 0.00 | 0.00 | 0.00 | 50 | 1012.4 |
| 20260506033345 | 43 | 335 | 1.7 | 4.3 | 0.00 | 0.00 | 0.00 | 50 | 1012.1 |
| 20260506032842 | 44 | 326 | 6.1 | 7.0 | 0.00 | 0.00 | 0.00 | 49 | 1012.3 |
| 20260506032339 | 44 | 336 | 3.5 | 7.0 | 0.00 | 0.00 | 0.00 | 49 | 1012.3 |
| 20260506031836 | 44 | 311 | 3.5 | 4.3 | 0.00 | 0.00 | 0.00 | 48 | 1012.2 |
| 20260506031333 | 44 | 290 | 1.7 | 6.1 | 0.00 | 0.00 | 0.00 | 49 | 1012.1 |
| 20260506030831 | 44 | 336 | 3.5 | 5.2 | 0.00 | 0.00 | 0.00 | 48 | 1012.0 |
| 20260506030329 | 44 | 233 | 0.9 | 2.6 | 0.00 | 0.00 | 0.00 | 48 | 1011.9 |
| 20260506025825 | 44 | 320 | 0.9 | 4.3 | 0.00 | 0.00 | 0.00 | 48 | 1011.9 |
| 20260506025321 | 45 | 282 | 0.0 | 0.9 | 0.00 | 0.00 | 0.00 | 47 | 1011.9 |
| 20260506024819 | 45 | 290 | 0.9 | 4.3 | 0.00 | 0.00 | 0.00 | 46 | 1011.7 |
| 20260506024316 | 45 | 287 | 0.9 | 2.6 | 0.00 | 0.00 | 0.00 | 45 | 1011.8 |
| 20260506023812 | 45 | 275 | 0.9 | 1.7 | 0.00 | 0.00 | 0.00 | 45 | 1011.6 |
| 20260506023309 | 45 | 305 | 3.5 | 5.2 | 0.00 | 0.00 | 0.00 | 45 | 1011.4 |
| 20260506022805 | 46 | 297 | 2.6 | 4.3 | 0.00 | 0.00 | 0.00 | 44 | 1011.3 |
| 20260506022305 | 46 | 301 | 0.9 | 4.3 | 0.00 | 0.00 | 0.00 | 44 | 1011.3 |
| 20260506021801 | 46 | 254 | 0.9 | 4.3 | 0.00 | 0.00 | 0.00 | 44 | 1011.3 |
| 20260506021258 | 46 | 310 | 1.7 | 4.3 | 0.00 | 0.00 | 0.00 | 44 | 1011.2 |